Regional Weather Roundup
Issued by NWS

Home | Current Version | Previous Version | Graphics & Text | Print | Product List | Glossary On
Versions: 1 2 3 4 5 6 7 8 9 10 11 12 13 14 15 16 17 18 19 20 21 22 23 24 25 26 27 28 29 30 31 32 33 34 35 36 37 38 39 40 41 42 43 44 45 46 47 48 49 50
000
ASUS43 KIND 261659
RWRIN

WEATHER ROUNDUP FOR INDIANA
NATIONAL WEATHER SERVICE INDIANAPOLIS IN
100 PM EDT MON JUN 26 2017

NOTE: "FAIR" INDICATES FEW OR NO CLOUDS BELOW 12,000 FEET WITH NO
SIGNIFICANT WEATHER AND/OR OBSTRUCTIONS TO VISIBILITY.

* - STATION DOES NOT REPORT WEATHER SUCH AS PRECIPITATION OR FOG.

+ - STATION NOT QUALITY CONTROLLED BY THE NATIONAL WEATHER SERVICE.
    USE DATA WITH CAUTION...ESPECIALLY DEWPOINT AND RELATIVE
    HUMIDITY OBSERVATIONS.

INZ001>003-010>013-019-020-261800-
NORTHWEST INDIANA

CITY           SKY/WX    TMP DP  RH WIND       PRES   REMARKS
GARY /AIRPORT/ PTSUNNY   72  39  30 W23       30.09F
KNOX *+        PTSUNNY   70  34  26 W14       30.09F
MICHIGAN CITY+ PTSUNNY   68  45  42 W12G18    30.10F
MONTICELLO +   MOSUNNY   70  42  36 W7G20     30.11F

$$

LMZ046-743>745-261800-
SOUTHERN LAKE MICHIGAN

STATION/POSITION TIME  TEMP    WIND        PRES    WAVE
                       AIR SEA DIR/SP/G            HT
                 (UTC) (F)     (DEG/KT/KT) (MB)    (FT)
BURNS HARBOR     1640   66     300/ 11/ 14 1019.3F
MICHIGAN CITY    1630   65     240/ 12/ 14   N/A
5NW MICH CITY    1650   65 66  260/  8/ 10   N/A     2

$$

INZ004-005-014>016-021>024-261800-
NORTH CENTRAL INDIANA

CITY           SKY/WX    TMP DP  RH WIND       PRES   REMARKS
ELKHART        MOSUNNY   68  43  40 W12G17    30.08F
GOSHEN         PTSUNNY   69  45  41 W16       30.08F
SOUTH BEND     MOSUNNY   68  42  38 NW17      30.09F

$$

INZ006>009-017-018-025>027-261800-
NORTHEAST INDIANA

CITY           SKY/WX    TMP DP  RH WIND       PRES   REMARKS
FORT WAYNE     PTSUNNY   70  46  42 W16       30.10F
KENDALLVILLE + CLOUDY    65  45  48 NW7       30.09F

$$

INZ028-029-035-036-043>045-051>053-261800-
WEST CENTRAL INDIANA

CITY           SKY/WX    TMP DP  RH WIND       PRES   REMARKS
LAFAYETTE      SUNNY     70  48  45 W15G21    30.12F
TERRE HAUTE    MOSUNNY   73  46  38 W15G21    30.17S

$$

INZ030>032-037>040-046>048-054>057-064-065-261800-
CENTRAL INDIANA

CITY           SKY/WX    TMP DP  RH WIND       PRES   REMARKS
ANDERSON         N/A     72  50  46 MISG        N/A
COLUMBUS       MOSUNNY   72  41  33 W17       30.16F
GREENWOOD *+   MOSUNNY   70  47  43 W14       30.15F
INDIANAPOLIS   PTSUNNY   71  47  42 W13       30.14F
-EAGLE CREEK   PTSUNNY   70  46  42 W9        30.13F
KOKOMO +       PTSUNNY   69  47  45 W16       30.13F
MT COMFORT *+  MOSUNNY   70  46  43 W15       30.14F
SHELBYVILLE    MOSUNNY   73  48  41 W13G21    30.14F

$$

INZ033-034-041-042-049-050-058-059-261800-
EAST CENTRAL INDIANA

CITY           SKY/WX    TMP DP  RH WIND       PRES   REMARKS
MUNCIE         PTSUNNY   69  47  45 W9        30.13F
RICHMOND +     PTSUNNY   68  45  42 W14G22    30.16S

$$

INZ060-061-067>069-081>083-085>088-261800-
SOUTHWEST INDIANA

CITY           SKY/WX    TMP DP  RH WIND       PRES   REMARKS
EVANSVILLE     SUNNY     76  45  33 VRB7      30.20F
HUNTINGBURG *+ SUNNY     73  50  44 NW7       30.19F

$$

INZ062-063-066-070>080-084-089>092-261800-
SOUTH CENTRAL AND SOUTHEAST INDIANA

CITY           SKY/WX    TMP DP  RH WIND       PRES   REMARKS
BLOOMINGTON    SUNNY     73  46  38 NW6G18    30.16F
MADISON *+     MOSUNNY   73  45  35 W10       30.19F
SEYMOUR +      MOSUNNY  N/A N/A N/A W12       30.16F

$$





USA.gov is the U.S. government's official web portal to all federal, state and local government web resources and services.